Date,TemperatureHighF,TemperatureAvgF,TemperatureLowF,DewpointHighF,DewpointAvgF,DewpointLowF,HumidityHigh,HumidityAvg,HumidityLow,PressureMaxIn,PressureMinIn,WindSpeedMaxMPH,WindSpeedAvgMPH,GustSpeedMaxMPH,PrecipitationSumIn
2012-1-1,61.3,54.1,45.5,57.0,49.3,44.0,94,84,71,30.21,29.93,15,4,19,0.00
2012-1-2,60.3,49.5,39.4,56.0,30.7,21.0,91,50,30,30.04,29.91,18,7,26,0.00
2012-1-3,39.2,33.5,29.3,27.0,15.4,10.0,77,49,34,30.32,29.94,21,11,27,0.00
2012-1-4,43.3,33.0,22.4,30.0,17.7,7.0,69,54,33,30.44,30.14,20,5,24,0.00
2012-1-5,56.9,46.1,38.4,38.0,24.5,18.0,70,44,30,30.14,30.01,13,5,17,0.00
2012-1-6,59.1,50.9,41.1,50.0,40.6,26.0,85,69,50,30.15,30.02,15,5,19,0.00
2012-1-7,58.7,54.4,48.5,53.0,48.8,42.0,91,81,66,30.07,29.98,13,6,15,0.00
2012-1-8,59.7,54.6,51.5,52.0,46.9,39.0,93,76,47,30.26,30.07,9,4,16,0.00
2012-1-9,52.5,49.4,45.3,49.0,44.0,34.0,95,82,54,30.24,30.04,12,4,14,0.01
2012-1-10,54.0,50.4,47.4,50.0,47.9,46.0,97,91,81,30.11,30.02,7,3,11,0.00
2012-1-11,61.7,55.8,49.0,60.0,53.4,45.0,97,92,80,30.02,29.58,19,5,22,0.35
2012-1-12,59.8,55.0,49.6,56.0,50.4,45.0,95,84,77,29.74,29.60,22,10,24,0.06
2012-1-13,60.9,45.5,36.5,57.0,28.0,18.0,89,52,36,30.06,29.61,22,10,35,0.01
2012-1-14,47.2,39.7,31.7,32.0,25.3,22.0,78,58,38,30.24,30.06,10,5,13,0.02
2012-1-15,49.3,41.8,33.5,34.0,26.8,24.0,70,56,44,30.57,30.14,18,7,23,0.00
2012-1-16,51.7,42.2,32.4,47.0,34.3,25.0,85,74,63,30.63,30.38,11,3,13,0.00
2012-1-17,59.0,54.9,50.2,55.0,51.1,45.0,92,87,81,30.37,30.01,17,7,21,0.00
2012-1-18,58.8,50.9,39.6,57.0,46.1,34.0,97,84,59,30.09,29.89,14,7,21,0.02
2012-1-19,51.6,43.6,34.2,44.0,32.9,27.0,80,67,53,30.23,30.06,14,6,20,0.05
2012-1-20,57.8,50.9,43.8,50.0,44.1,35.0,92,78,43,30.19,30.10,7,3,13,0.04
2012-1-21,58.9,56.8,52.5,57.0,54.7,51.0,96,92,87,30.14,29.93,16,6,22,0.11
2012-1-22,51.8,43.0,40.4,50.0,41.2,39.0,95,93,92,30.32,30.09,20,9,22,0.04
2012-1-23,59.8,50.4,42.8,59.0,49.4,41.0,98,96,94,30.28,30.07,11,4,14,0.02
2012-1-24,62.4,57.4,53.1,59.0,55.9,51.0,98,95,87,30.20,30.06,10,4,12,0.02
2012-1-25,62.4,54.4,48.3,52.0,48.0,42.0,94,80,53,30.30,30.18,9,4,12,0.00
2012-1-26,62.1,55.2,47.0,61.0,53.1,46.0,96,92,86,30.18,29.89,12,3,25,0.00
2012-1-27,70.0,61.1,53.4,61.0,54.8,45.0,97,82,47,30.01,29.68,23,8,39,0.19
2012-1-28,58.1,52.5,44.9,51.0,46.5,41.0,92,81,57,30.16,30.02,8,3,10,0.00
2012-1-29,56.9,49.0,43.2,45.0,31.1,22.0,81,53,26,30.34,30.16,18,7,21,0.00
2012-1-30,60.6,50.2,40.0,47.0,31.3,20.0,82,52,21,30.45,30.30,14,4,19,0.00
2012-1-31,58.6,53.0,45.8,51.0,44.1,36.0,89,73,49,30.44,30.31,13,4,18,0.00
2012-2-1,60.5,56.5,51.2,54.0,51.9,47.0,94,85,77,30.31,30.12,15,6,19,0.00
2012-2-2,70.9,60.6,54.1,59.0,54.3,49.0,96,81,51,30.26,30.01,14,5,21,0.15
2012-2-3,57.9,50.7,42.9,49.0,39.3,31.0,87,67,36,30.46,30.26,14,7,21,0.00
2012-2-4,58.0,52.9,44.2,56.0,48.3,40.0,92,84,69,30.39,30.05,13,4,16,0.00
2012-2-5,57.6,52.7,44.0,56.0,50.8,40.0,96,93,86,30.21,29.96,16,5,20,0.24
2012-2-6,52.7,47.2,39.7,47.0,41.4,36.0,87,81,71,30.27,30.09,12,5,16,0.00
2012-2-7,54.5,49.8,45.9,47.0,43.2,39.0,93,79,60,30.16,30.09,11,4,13,0.00
2012-2-8,60.4,48.6,41.2,48.0,42.7,38.0,91,80,55,30.16,30.03,13,5,19,0.01
2012-2-9,50.8,44.1,38.6,41.0,35.7,33.0,87,73,52,30.28,30.14,15,5,19,0.00
2012-2-10,52.3,46.7,39.4,47.0,43.2,38.0,95,88,72,30.25,29.86,8,3,10,0.07
2012-2-11,52.0,45.6,30.5,47.0,37.3,12.0,95,75,37,29.96,29.67,28,7,36,0.01
2012-2-12,40.7,33.0,25.8,20.0,11.9,7.0,58,42,30,30.23,29.96,31,10,32,0.00
2012-2-13,46.9,38.8,28.4,34.0,22.4,15.0,70,53,34,30.30,30.17,11,4,15,0.00
2012-2-14,53.4,47.1,41.2,46.0,39.5,32.0,86,75,52,30.18,30.07,8,2,14,0.00
2012-2-15,64.6,51.7,44.9,49.0,45.3,40.0,92,80,41,30.29,30.08,11,4,17,0.00
2012-2-16,60.4,53.0,44.5,60.0,50.3,42.0,98,90,71,30.29,29.96,14,5,17,0.61
2012-2-17,64.4,55.3,49.4,54.0,49.3,46.0,95,82,53,30.10,29.97,13,4,18,0.00
2012-2-18,59.6,53.9,47.5,52.0,48.9,46.0,95,83,69,30.13,29.96,11,4,17,0.01
2012-2-19,57.8,50.9,41.8,56.0,49.4,40.0,96,94,87,29.96,29.61,19,9,26,0.31
2012-2-20,53.0,43.9,38.2,39.0,34.9,31.0,92,73,43,30.34,29.75,22,9,31,0.02
2012-2-21,59.7,48.2,37.1,56.0,43.6,33.0,94,84,72,30.35,30.04,14,5,22,0.00
2012-2-22,60.8,55.6,50.5,55.0,52.5,48.0,94,89,79,30.04,29.67,21,7,26,0.00
2012-2-23,61.6,58.7,55.5,59.0,56.8,54.0,96,93,88,29.75,29.63,18,6,21,0.00
2012-2-24,65.1,60.5,58.5,64.0,58.7,48.0,98,94,63,29.76,29.66,19,10,26,0.45
2012-2-25,59.4,50.4,44.1,43.0,26.7,18.0,54,41,26,30.32,29.78,21,10,30,0.00
2012-2-26,51.3,43.1,35.1,45.0,27.1,18.0,85,55,38,30.51,30.32,12,4,18,0.00
2012-2-27,60.8,56.3,47.2,57.0,52.2,45.0,94,86,79,30.45,30.31,12,3,18,0.03
2012-2-28,58.9,54.8,48.0,57.0,49.1,43.0,96,82,63,30.41,30.29,13,6,19,0.00
2012-2-29,62.9,56.0,47.5,61.0,53.8,44.0,96,92,84,30.32,29.94,19,6,28,0.00
2012-3-1,77.5,61.2,58.1,63.0,58.6,57.0,96,91,57,29.93,29.75,19,8,26,0.00
2012-3-2,63.7,59.8,56.2,61.0,58.1,54.0,98,94,86,30.00,29.80,12,5,18,0.00
2012-3-3,65.5,60.2,57.2,62.0,58.9,56.0,98,95,89,29.80,29.69,16,7,22,0.37
2012-3-4,58.4,47.4,41.7,58.0,42.9,33.0,97,85,56,30.06,29.61,19,8,28,0.93
2012-3-5,62.2,50.7,39.5,44.0,33.3,24.0,76,54,27,30.49,29.99,31,10,40,0.00
2012-3-6,50.4,44.0,35.8,41.0,30.6,24.0,83,60,46,30.68,30.49,13,7,18,0.00
2012-3-7,60.0,51.6,41.2,55.0,46.4,36.0,91,82,74,30.66,30.47,12,5,14,0.00
2012-3-8,65.6,61.0,55.7,60.0,57.4,53.0,96,88,79,30.47,30.18,10,3,15,0.01
2012-3-9,66.3,56.7,44.7,63.0,54.0,42.0,97,91,69,30.29,30.10,17,5,24,0.00
2012-3-10,54.2,49.1,41.4,43.0,39.3,33.0,93,70,53,30.53,30.28,20,9,25,0.00
2012-3-11,58.4,51.1,40.7,53.0,37.8,26.0,92,63,35,30.58,30.45,11,5,16,0.00
2012-3-12,64.9,56.8,50.2,58.0,53.2,49.0,97,88,71,30.45,30.30,6,2,9,0.00
2012-3-13,64.6,61.3,59.3,60.0,57.5,56.0,93,87,83,30.30,30.17,21,5,26,0.00
2012-3-14,71.5,62.6,57.4,64.0,59.3,56.0,95,89,76,30.24,30.16,9,4,13,0.00
2012-3-15,66.8,62.8,58.3,61.0,59.9,57.0,96,90,82,30.30,30.22,11,4,18,0.00
2012-3-16,66.6,63.0,60.0,64.0,61.5,59.0,97,94,87,30.26,30.14,17,5,22,0.01
2012-3-17,72.9,64.6,60.3,63.0,61.3,59.0,97,89,66,30.25,30.16,8,3,13,0.00
2012-3-18,68.6,61.2,58.4,63.0,59.9,58.0,98,95,79,30.31,30.20,8,3,12,0.00
2012-3-19,72.7,64.1,60.0,64.0,61.8,59.0,97,92,73,30.22,30.13,9,3,12,0.00
2012-3-20,73.3,65.4,60.9,66.0,63.0,60.0,96,92,75,30.24,30.15,9,2,12,0.01
2012-3-21,72.0,66.7,63.6,66.0,64.3,63.0,96,92,82,30.31,30.21,8,2,16,0.00
2012-3-22,69.9,66.7,64.3,66.0,64.1,62.0,95,91,84,30.29,30.18,11,3,17,0.00
2012-3-23,71.0,67.3,64.0,67.0,65.0,63.0,97,92,84,30.18,30.01,14,4,17,0.00
2012-3-24,70.6,66.9,64.7,68.0,65.4,64.0,98,94,90,30.02,29.82,16,5,23,0.01
2012-3-25,71.6,64.6,58.2,64.0,60.0,55.0,97,86,58,29.77,29.63,13,4,21,0.37
2012-3-26,76.9,65.3,57.7,59.0,54.5,43.0,95,72,36,30.07,29.70,18,7,24,0.06
2012-3-27,58.4,53.5,46.9,43.0,38.7,31.0,72,58,39,30.32,30.08,13,7,18,0.00
2012-3-28,67.0,62.5,55.7,62.0,54.0,41.0,90,74,56,30.30,29.91,20,9,28,0.00
2012-3-29,86.0,69.9,62.3,63.0,58.3,49.0,91,71,28,29.94,29.81,17,8,20,0.00
2012-3-30,68.7,64.0,59.6,64.0,58.5,52.0,95,82,74,30.00,29.89,16,7,22,0.00
2012-3-31,70.1,66.4,64.9,66.0,63.6,61.0,95,90,85,29.91,29.71,14,6,22,0.08
2012-4-1,65.6,59.6,53.0,64.0,55.1,50.0,94,85,73,29.91,29.71,16,7,24,0.07
2012-4-2,77.6,67.2,59.8,63.0,55.9,36.0,91,69,28,29.95,29.63,20,10,26,0.00
2012-4-3,66.0,61.6,54.8,61.0,51.2,39.0,94,71,39,30.04,29.91,13,5,18,0.00
2012-4-4,70.8,67.3,65.2,65.0,63.4,61.0,93,87,79,29.90,29.63,12,6,19,0.00
2012-4-5,67.6,62.2,52.1,65.0,55.0,45.0,93,78,58,29.81,29.64,18,8,22,0.00
2012-4-6,57.9,50.8,47.7,48.0,44.8,41.0,93,81,58,30.06,29.73,20,11,33,0.37
2012-4-7,66.2,54.7,42.9,48.0,37.9,28.0,85,58,25,30.23,30.06,16,5,16,0.00
2012-4-8,69.8,61.4,51.0,61.0,50.1,38.0,89,68,32,30.16,29.94,14,7,21,0.00
2012-4-9,68.9,63.0,57.7,61.0,49.7,36.0,89,64,33,30.05,29.91,16,8,23,0.00
2012-4-10,72.9,64.5,56.0,59.0,51.1,31.0,82,64,22,29.98,29.80,21,9,29,0.00
2012-4-11,65.9,58.4,50.0,59.0,38.7,28.0,81,50,28,30.10,29.77,17,9,24,0.00
2012-4-12,64.3,52.7,43.0,44.0,33.6,29.0,70,51,27,30.18,30.10,14,6,21,0.00
2012-4-13,63.7,57.6,47.9,48.0,41.8,35.0,79,58,35,30.28,30.16,12,5,19,0.00
2012-4-14,68.5,62.2,52.4,59.0,52.3,45.0,92,71,48,30.36,30.24,13,4,20,0.00
2012-4-15,70.7,67.2,64.5,64.0,61.8,59.0,90,83,73,30.27,30.20,14,7,22,0.00
2012-4-16,72.1,67.9,64.1,65.0,62.8,61.0,94,84,69,30.25,30.14,14,6,22,0.00
2012-4-17,77.1,69.5,65.6,67.0,64.6,62.0,91,84,64,30.17,30.06,11,6,18,0.00
2012-4-18,71.7,68.4,66.2,66.0,64.4,62.0,93,87,76,30.13,30.01,12,5,16,0.00
2012-4-19,66.8,63.4,60.2,64.0,60.6,59.0,96,90,82,30.05,29.98,12,6,15,0.08
2012-4-20,68.3,64.1,59.4,65.0,60.3,56.0,94,88,77,30.02,29.86,11,5,13,0.00
2012-4-21,75.5,69.2,65.3,70.0,66.2,63.0,96,90,82,29.88,29.72,25,5,33,0.04
2012-4-22,69.9,64.9,55.4,67.0,62.1,52.0,95,90,79,29.72,29.36,18,7,28,0.30
2012-4-23,57.7,52.2,47.0,52.0,44.2,37.0,91,75,47,29.75,29.47,16,8,25,0.00
2012-4-24,65.1,56.7,46.2,44.0,33.2,25.0,79,45,22,29.82,29.71,21,8,26,0.00
2012-4-25,65.4,58.8,51.1,59.0,48.4,40.0,81,69,59,29.99,29.84,18,7,20,0.00
2012-4-26,71.6,68.4,65.3,64.0,63.1,59.0,87,83,76,29.96,29.75,28,10,35,0.00
2012-4-27,81.3,69.5,65.3,67.0,63.0,60.0,91,80,56,30.07,29.86,15,7,24,0.01
2012-4-28,71.4,66.2,61.4,66.0,62.5,58.0,96,88,78,30.14,30.04,11,5,16,0.28
2012-4-29,70.6,63.8,60.1,63.0,59.7,57.0,91,86,77,30.20,30.10,13,5,17,0.00
2012-4-30,72.0,67.1,59.8,68.0,62.6,58.0,93,85,74,30.27,30.17,9,4,14,0.00
2012-5-1,73.1,71.3,69.9,70.0,68.6,68.0,94,91,86,30.21,30.09,17,7,24,0.00
2012-5-2,75.3,71.6,68.2,70.0,68.5,67.0,95,90,79,30.16,30.07,14,6,19,0.00
2012-5-3,81.1,72.4,67.3,71.0,68.4,66.0,94,87,66,30.14,30.04,11,6,17,0.00
2012-5-4,80.1,72.4,67.1,71.0,68.2,65.0,93,86,66,30.07,29.93,10,5,16,0.00
2012-5-5,85.0,74.5,69.1,72.0,69.6,67.0,95,85,56,29.94,29.77,16,6,25,0.96
2012-5-6,78.6,71.4,65.3,70.0,66.9,61.0,96,86,69,30.01,29.80,19,10,26,0.05
2012-5-7,73.8,68.6,61.2,66.0,61.7,57.0,93,79,58,30.05,29.96,17,8,19,0.00
2012-5-8,76.9,71.7,68.9,65.0,61.2,58.0,77,69,61,30.02,29.91,12,6,15,0.00
2012-5-9,76.3,72.3,65.5,71.0,68.2,64.0,94,87,78,29.92,29.63,13,4,19,0.06
2012-5-10,76.4,68.1,60.0,64.0,54.7,46.0,94,66,35,29.95,29.66,13,6,17,0.00
2012-5-11,76.0,67.7,59.7,61.0,54.8,44.0,85,65,35,30.23,29.95,11,4,15,0.00
2012-5-12,73.9,69.2,61.5,63.0,56.4,49.0,91,66,42,30.35,30.23,9,4,13,0.00
2012-5-13,74.5,72.3,70.6,61.0,58.4,55.0,69,62,54,30.29,30.15,13,6,16,0.00
2012-5-14,76.2,72.7,70.7,70.0,65.3,60.0,90,78,66,30.15,30.00,15,8,19,0.02
2012-5-15,76.8,74.2,72.6,72.0,70.3,65.0,92,88,73,30.02,29.93,15,6,21,0.00
2012-5-16,76.0,73.8,72.1,72.0,70.7,68.0,94,90,79,29.98,29.90,13,5,22,0.03
2012-5-17,76.7,71.5,66.9,71.0,68.6,65.0,95,90,81,29.97,29.88,13,4,18,0.12
2012-5-18,70.0,65.4,61.0,65.0,61.2,51.0,96,86,68,30.02,29.94,18,10,26,0.09
2012-5-19,78.6,66.8,56.3,62.0,55.1,47.0,87,67,45,30.07,29.98,18,10,24,0.00
2012-5-20,71.8,67.2,60.4,66.0,59.3,51.0,87,76,62,30.07,30.00,13,5,18,0.00
2012-5-21,78.0,71.4,65.3,70.0,67.1,64.0,94,86,70,30.02,29.88,11,4,13,0.00
2012-5-22,76.0,72.0,67.1,72.0,68.5,64.0,97,89,73,29.90,29.82,16,4,22,0.04
2012-5-23,77.8,74.7,71.1,73.0,70.3,67.0,93,86,73,29.97,29.83,13,6,19,0.00
2012-5-24,79.1,75.8,73.1,74.0,72.5,71.0,95,89,80,30.05,29.95,14,5,17,0.00
2012-5-25,79.9,75.6,72.5,73.0,71.2,68.0,94,86,75,30.08,30.01,15,7,21,0.11
2012-5-26,82.1,75.7,71.3,73.0,70.2,68.0,93,83,68,30.07,30.01,19,12,28,0.09
2012-5-27,79.9,76.5,73.3,74.0,73.3,71.0,94,90,83,30.11,30.02,14,7,22,0.01
2012-5-28,80.9,77.9,75.3,75.0,74.1,73.0,93,88,81,30.10,30.03,10,5,14,0.00
2012-5-29,79.9,77.7,76.2,75.0,73.8,71.0,92,88,83,30.04,29.87,15,6,22,0.00
2012-5-30,77.4,74.3,69.6,75.0,71.2,67.0,95,90,82,29.86,29.50,22,8,39,1.43
2012-5-31,84.3,76.4,69.5,75.0,70.7,66.0,95,83,55,29.92,29.80,17,6,19,0.00
2012-6-1,80.0,78.0,76.6,77.0,74.6,73.0,92,89,85,29.92,29.77,22,9,31,0.00
2012-6-2,80.5,74.9,70.3,74.0,65.3,58.0,91,73,54,29.87,29.74,17,6,26,0.00
2012-6-3,81.7,73.4,62.3,66.0,56.8,50.0,86,59,37,29.95,29.82,19,5,23,0.00
2012-6-4,80.3,75.9,72.0,70.0,67.3,63.0,89,75,58,29.84,29.64,13,6,19,0.00
2012-6-5,71.9,67.8,62.7,68.0,62.4,59.0,92,83,66,29.90,29.65,18,8,22,0.03
2012-6-6,73.7,66.4,58.6,62.0,58.9,55.0,91,78,53,29.98,29.88,15,7,19,0.00
2012-6-7,77.6,69.9,60.6,62.0,57.6,53.0,86,66,45,30.04,29.98,13,6,15,0.00
2012-6-8,80.4,72.6,64.1,67.0,63.1,59.0,85,72,54,30.04,29.97,13,4,16,0.00
2012-6-9,81.6,74.6,64.6,71.0,66.6,61.0,89,76,56,30.10,30.02,15,5,19,0.00
2012-6-10,79.6,75.8,68.8,70.0,68.5,65.0,88,78,71,30.18,30.08,11,5,16,0.00
2012-6-11,78.4,77.2,76.4,71.0,70.3,62.0,83,79,60,30.18,30.10,21,7,22,0.00
2012-6-12,78.2,76.1,74.4,74.0,71.7,70.0,92,86,79,30.10,29.90,20,10,28,0.34
2012-6-13,86.2,78.5,73.4,74.0,72.3,69.0,96,82,59,29.95,29.83,11,5,15,0.35
2012-6-14,78.5,72.9,66.9,72.0,64.9,60.0,91,76,66,30.11,29.95,16,8,20,0.00
2012-6-15,79.3,71.0,62.0,65.0,62.2,59.0,91,75,55,30.16,30.06,17,10,26,0.00
2012-6-16,80.7,70.1,61.1,65.0,60.0,56.0,91,72,49,30.19,30.12,16,8,19,0.00
2012-6-17,79.0,70.1,62.6,67.0,62.4,57.0,92,77,53,30.14,30.02,10,6,14,0.00
2012-6-18,77.7,72.5,64.5,67.0,64.6,62.0,93,77,64,30.12,30.05,9,4,14,0.00
2012-6-19,80.0,76.2,69.5,73.0,68.5,65.0,87,77,67,30.17,30.12,12,4,15,0.00
2012-6-20,81.1,77.3,71.8,73.0,71.6,69.0,89,82,74,30.17,30.07,15,5,17,0.00
2012-6-21,82.5,77.8,72.1,76.0,72.3,69.0,89,83,70,30.08,29.92,16,7,21,0.00
2012-6-22,81.4,77.8,73.0,75.0,71.1,68.0,86,80,72,29.95,29.84,22,8,24,0.00
2012-6-23,83.3,78.0,73.9,76.0,72.8,70.0,93,84,69,30.03,29.89,14,6,21,0.06
2012-6-24,81.2,78.1,73.0,77.0,74.9,72.0,96,90,81,30.01,29.92,10,3,12,0.01
2012-6-25,82.6,78.8,75.3,77.0,74.5,73.0,94,87,76,29.92,29.70,22,8,31,0.00
2012-6-26,78.1,72.8,68.2,74.0,61.9,56.0,92,70,49,29.87,29.70,16,8,25,0.00
2012-6-27,81.0,74.0,64.4,64.0,59.6,53.0,83,62,39,29.96,29.83,12,6,19,0.00
2012-6-28,84.8,77.0,65.8,73.0,66.9,60.0,86,72,45,30.01,29.91,13,5,22,0.00
2012-6-29,83.5,80.3,78.0,78.0,75.0,70.0,92,84,74,29.91,29.76,18,9,20,0.00
2012-6-30,93.7,82.7,77.0,80.0,78.1,76.0,95,86,59,29.88,29.79,16,5,19,0.00
2012-7-1,85.0,80.2,69.0,81.0,76.3,66.0,93,87,68,30.08,29.83,30,8,53,0.29
2012-7-2,91.3,81.0,72.1,77.0,72.0,68.0,91,75,48,29.98,29.92,12,5,18,0.00
2012-7-3,84.7,81.4,76.6,79.0,76.2,70.0,89,84,76,30.01,29.93,17,5,18,0.00
2012-7-4,85.5,82.3,80.2,79.0,78.0,77.0,92,86,76,29.99,29.91,17,8,19,0.00
2012-7-5,85.5,82.3,79.0,80.0,77.6,74.0,91,86,77,29.95,29.86,14,7,19,0.00
2012-7-6,85.4,82.4,78.5,81.0,78.6,76.0,93,88,81,29.96,29.89,12,6,19,0.00
2012-7-7,86.3,83.2,80.6,81.0,78.8,77.0,93,86,79,30.01,29.93,16,8,21,0.00
2012-7-8,88.8,83.7,80.9,81.0,78.4,76.0,89,84,69,29.98,29.86,19,9,25,0.00
2012-7-9,86.2,83.0,81.0,81.0,79.0,78.0,91,87,82,29.94,29.85,19,9,24,0.00
2012-7-10,85.2,79.2,72.9,80.0,74.7,70.0,93,86,77,30.02,29.90,16,5,22,0.00
2012-7-11,83.0,76.8,72.8,75.0,72.9,71.0,95,88,73,30.09,29.98,11,3,17,0.34
2012-7-12,83.6,78.6,73.1,77.0,74.5,71.0,94,87,78,30.15,30.06,9,3,10,0.00
2012-7-13,85.8,81.0,75.0,78.0,76.1,73.0,93,85,76,30.19,30.12,8,3,12,0.00
2012-7-14,85.1,82.5,77.9,78.0,75.7,74.0,89,80,73,30.23,30.15,10,4,16,0.14
2012-7-15,84.7,82.6,80.8,76.0,74.9,73.0,82,77,73,30.20,30.10,14,5,18,0.00
2012-7-16,85.2,80.8,76.1,77.0,74.6,70.0,91,81,74,30.10,29.93,18,6,22,0.00
2012-7-17,86.1,81.9,78.4,79.0,76.7,74.0,89,84,78,29.99,29.91,15,6,25,0.00
2012-7-18,85.2,81.4,78.5,79.0,76.7,74.0,91,85,78,30.03,29.95,12,6,22,0.00
2012-7-19,84.4,81.6,79.0,79.0,77.4,76.0,91,87,82,30.05,29.97,19,9,27,0.00
2012-7-20,83.8,81.6,79.4,79.0,77.2,76.0,91,86,82,30.00,29.91,24,10,30,0.00
2012-7-21,85.4,80.5,76.0,78.0,75.4,71.0,91,84,76,30.09,29.96,15,6,26,0.05
2012-7-22,86.1,82.2,79.2,81.0,78.4,76.0,92,88,80,30.17,30.07,15,6,20,0.01
2012-7-23,92.5,82.8,77.3,79.0,77.4,73.0,92,84,62,30.19,30.02,17,7,23,0.03
2012-7-24,86.8,80.7,75.2,81.0,76.3,73.0,93,86,71,30.04,29.78,18,6,37,0.36
2012-7-25,85.3,80.6,75.3,76.0,73.7,71.0,90,80,67,29.95,29.83,10,5,14,0.00
2012-7-26,85.5,82.9,80.6,82.0,79.2,75.0,91,88,83,29.94,29.82,16,8,22,0.00
2012-7-27,87.0,84.1,81.8,82.0,80.4,79.0,93,88,81,29.95,29.85,18,8,24,0.00
2012-7-28,85.8,82.3,76.9,80.0,77.0,72.0,91,84,79,29.99,29.90,22,6,25,0.00
2012-7-29,86.0,80.8,75.3,79.0,75.1,70.0,90,83,75,30.00,29.90,9,4,17,0.00
2012-7-30,82.0,79.5,75.4,77.0,73.9,71.0,88,83,79,30.02,29.94,13,4,19,0.10
2012-7-31,83.2,79.1,74.5,77.0,74.7,72.0,93,86,78,29.98,29.89,11,4,14,0.01
2012-8-1,81.5,78.2,72.9,77.0,74.0,71.0,94,87,79,29.93,29.85,14,4,24,0.57
2012-8-2,85.2,80.2,75.1,78.0,75.7,69.0,95,86,78,29.99,29.87,16,4,19,0.00
2012-8-3,87.4,82.1,74.8,79.0,75.2,69.0,88,80,59,30.10,29.96,12,4,19,0.00
2012-8-4,86.9,83.4,81.6,79.0,76.9,75.0,86,81,70,30.22,30.06,15,6,18,0.00
2012-8-5,86.0,83.3,81.8,78.0,76.9,76.0,86,81,74,30.24,30.13,12,6,18,0.00
2012-8-6,84.9,82.1,77.6,78.0,76.9,73.0,92,84,76,30.14,30.03,12,6,20,0.07
2012-8-7,82.1,78.5,75.3,78.0,75.3,72.0,94,89,84,30.06,29.98,10,3,21,0.84
2012-8-8,80.9,78.0,73.7,76.0,74.2,72.0,95,88,79,30.03,29.95,10,4,17,0.28
2012-8-9,83.9,79.8,74.9,78.0,75.4,73.0,94,86,77,30.00,29.89,11,4,22,0.03
2012-8-10,83.8,81.4,76.7,78.0,76.8,73.0,92,86,78,29.93,29.86,18,10,25,0.21
2012-8-11,81.7,80.1,75.6,78.0,75.8,72.0,92,86,82,29.98,29.89,27,10,36,0.32
2012-8-12,81.1,77.7,72.5,77.0,73.8,69.0,94,88,78,30.01,29.94,15,4,21,0.37
2012-8-13,84.5,80.0,75.7,78.0,76.6,74.0,96,89,79,30.03,29.95,13,4,18,0.00
2012-8-14,85.1,81.4,75.1,78.0,76.2,73.0,93,84,72,29.97,29.89,19,6,22,0.00
2012-8-15,84.6,82.2,78.9,79.0,77.7,76.0,91,86,80,29.94,29.85,19,8,23,0.01
2012-8-16,84.6,81.6,73.8,76.0,74.7,71.0,92,80,74,29.99,29.93,9,4,11,0.22
2012-8-17,85.1,81.0,75.3,78.0,75.8,73.0,91,84,77,29.98,29.84,14,5,21,0.00
2012-8-18,84.5,79.6,73.9,78.0,74.1,71.0,90,83,72,29.89,29.81,11,4,17,0.01
2012-8-19,83.4,77.2,73.4,77.0,73.9,71.0,95,89,78,29.89,29.80,15,5,20,0.63
2012-8-20,82.9,77.4,73.9,75.0,73.2,71.0,96,87,71,29.95,29.83,9,3,16,0.26
2012-8-21,77.4,75.8,73.8,74.0,72.2,71.0,93,88,83,30.06,29.94,11,3,18,0.05
2012-8-22,80.9,75.3,72.9,75.0,72.3,70.0,95,90,80,30.07,29.99,9,4,17,0.16
2012-8-23,81.4,74.3,71.1,75.0,72.1,70.0,96,93,80,30.10,30.04,12,6,22,0.35
2012-8-24,75.4,72.3,70.9,72.0,70.7,69.0,96,95,88,30.09,30.01,15,8,17,0.35
2012-8-25,79.1,72.2,69.0,71.0,69.3,68.0,98,91,74,30.11,29.98,11,3,12,0.28
2012-8-26,83.3,75.8,68.1,77.0,71.5,67.0,96,87,73,30.15,30.08,10,5,14,0.14
2012-8-27,85.5,81.0,76.3,80.0,77.0,75.0,95,87,81,30.12,30.02,12,4,16,0.02
2012-8-28,82.1,78.5,74.7,78.0,75.9,73.0,95,92,87,30.05,29.93,19,6,26,0.55
2012-8-29,83.9,77.1,74.0,76.0,74.3,73.0,97,91,78,30.01,29.89,7,3,11,0.18
2012-8-30,82.6,79.0,75.2,77.0,74.6,73.0,96,87,76,30.16,29.98,8,3,15,0.00
2012-8-31,83.5,80.4,75.2,77.0,75.4,73.0,94,85,77,30.22,30.10,18,5,18,0.00
2012-9-1,87.0,81.0,76.5,81.0,76.7,73.0,93,87,75,30.12,30.00,10,5,14,0.00
2012-9-2,86.7,80.8,76.2,80.0,76.1,73.0,92,86,73,30.03,29.94,10,3,14,0.00
2012-9-3,83.4,79.9,71.6,80.0,76.2,69.0,93,88,82,30.07,29.97,9,4,18,0.74
2012-9-4,83.1,80.8,77.1,77.0,74.9,72.0,92,82,71,30.05,29.95,15,5,20,0.09
2012-9-5,84.6,81.9,78.3,78.0,75.6,74.0,87,81,77,29.98,29.89,19,8,23,0.00
2012-9-6,84.6,81.6,71.2,79.0,76.8,69.0,94,85,80,29.97,29.88,15,8,21,0.50
2012-9-7,82.7,79.0,72.9,78.0,75.3,71.0,94,88,82,29.96,29.87,14,4,22,1.23
2012-9-8,84.1,80.4,74.5,79.0,76.6,72.0,94,88,79,29.87,29.75,24,7,25,0.76
2012-9-9,78.4,73.7,69.9,72.0,69.0,63.0,96,86,70,29.94,29.77,12,6,18,0.02
2012-9-10,79.8,72.0,65.6,64.0,59.7,56.0,87,67,45,30.14,29.93,13,5,17,0.00
2012-9-11,79.8,71.2,62.8,62.0,57.4,54.0,86,64,42,30.28,30.14,14,6,19,0.00
2012-9-12,77.7,70.9,62.3,65.0,62.0,57.0,85,74,62,30.32,30.25,13,6,16,0.00
2012-9-13,81.3,73.2,64.5,70.0,65.9,61.0,91,79,62,30.29,30.19,12,6,15,0.00
2012-9-14,80.2,74.5,69.6,73.0,70.2,67.0,95,86,74,30.21,30.11,11,5,18,0.00
2012-9-15,81.7,75.1,69.4,72.0,70.0,68.0,96,84,69,30.15,30.07,10,4,11,0.00
2012-9-16,77.3,73.8,68.8,69.0,64.9,62.0,87,74,65,30.14,30.07,9,5,14,0.00
2012-9-17,80.5,77.9,75.5,74.0,70.9,67.0,88,79,69,30.09,29.99,13,5,19,0.00
2012-9-18,81.9,79.3,73.4,76.0,74.3,71.0,94,85,75,29.98,29.77,25,11,35,0.41
2012-9-19,79.1,71.5,64.7,75.0,67.4,60.0,94,87,79,30.07,29.83,15,8,22,0.01
2012-9-20,78.8,70.5,64.5,66.0,63.2,60.0,87,78,60,30.11,30.02,14,7,18,0.00
2012-9-21,77.4,72.1,64.8,66.0,64.2,63.0,93,77,64,30.08,30.01,7,4,10,0.00
2012-9-22,78.7,74.3,67.1,71.0,66.5,62.0,87,77,65,30.04,29.95,16,5,21,0.00
2012-9-23,79.2,73.7,65.9,72.0,66.2,60.0,92,78,63,30.09,29.95,15,6,18,0.00
2012-9-24,76.1,67.0,59.8,60.0,55.2,51.0,87,68,42,30.19,30.08,13,6,18,0.00
2012-9-25,74.7,68.6,60.3,66.0,58.0,51.0,86,70,48,30.25,30.18,9,3,12,0.00
2012-9-26,78.6,73.9,65.4,66.0,63.7,58.0,92,71,59,30.23,30.16,8,3,12,0.00
2012-9-27,80.8,74.5,66.6,69.0,67.4,65.0,93,79,63,30.20,30.10,8,3,11,0.00
2012-9-28,79.5,74.9,68.3,72.0,69.0,66.0,94,82,69,30.11,29.99,10,4,16,0.00
2012-9-29,77.4,72.3,68.6,71.0,69.1,67.0,94,90,81,30.00,29.87,12,4,13,0.02
2012-9-30,74.6,68.1,63.9,67.0,65.2,62.0,95,90,76,29.91,29.84,11,4,14,0.04
2012-10-1,77.6,71.5,66.1,76.0,69.7,65.0,96,94,88,29.90,29.84,17,6,21,0.20
2012-10-2,78.9,77.8,75.6,77.0,75.8,74.0,96,94,91,30.01,29.83,22,8,32,0.43
2012-10-3,80.5,78.2,75.9,77.0,75.7,73.0,95,92,88,30.18,30.01,16,5,25,0.03
2012-10-4,82.6,76.8,72.3,76.0,72.6,69.0,95,87,72,30.21,30.13,8,3,11,0.00
2012-10-5,82.3,74.2,68.7,69.0,66.0,59.0,93,77,45,30.16,30.02,7,3,10,0.00
2012-10-6,78.3,73.6,66.6,70.0,66.5,62.0,87,78,67,30.02,29.89,12,4,18,0.00
2012-10-7,78.3,72.2,59.4,73.0,68.5,57.0,94,88,81,30.07,29.93,15,5,28,0.70
2012-10-8,69.1,60.7,55.7,65.0,58.3,54.0,96,92,85,30.15,30.00,16,8,21,0.30
2012-10-9,61.7,57.7,55.0,58.0,56.2,54.0,97,95,88,30.08,30.01,11,6,20,0.07
2012-10-10,70.9,62.0,55.9,58.0,55.9,54.0,96,81,61,30.09,29.96,10,4,14,0.00
2012-10-11,68.1,62.3,57.6,58.0,53.7,50.0,90,74,56,30.25,30.08,16,6,20,0.00
2012-10-12,72.1,63.5,56.6,58.0,55.0,53.0,91,75,51,30.29,30.13,10,3,14,0.00
2012-10-13,70.2,61.5,53.4,57.0,52.2,49.0,87,72,52,30.41,30.29,13,7,19,0.00
2012-10-14,76.3,67.8,57.1,68.0,62.4,53.0,95,83,71,30.31,30.06,9,4,12,0.00
2012-10-15,76.3,71.2,64.5,71.0,67.7,63.0,95,89,81,30.05,29.72,15,4,19,0.08
2012-10-16,69.9,63.1,57.2,64.0,52.5,49.0,94,69,49,29.93,29.78,15,6,20,0.01
2012-10-17,66.6,62.1,56.5,57.0,54.0,51.0,88,75,60,30.01,29.91,7,3,10,0.00
2012-10-18,74.4,67.7,58.8,71.0,64.4,56.0,93,89,83,29.94,29.81,14,3,19,0.07
2012-10-19,75.0,71.6,65.4,71.0,68.3,59.0,96,89,78,29.81,29.73,11,4,13,0.01
2012-10-20,73.4,65.8,57.1,59.0,53.2,47.0,81,65,44,29.91,29.78,11,4,17,0.00
2012-10-21,70.9,62.2,55.3,55.0,50.4,45.0,78,66,47,30.13,29.91,15,6,19,0.00
2012-10-22,68.9,62.1,53.8,58.0,51.5,48.0,90,70,51,30.21,30.13,5,2,8,0.00
2012-10-23,73.0,65.2,56.3,63.0,55.8,52.0,90,73,51,30.20,30.12,7,3,10,0.00
2012-10-24,77.6,70.1,61.8,69.0,65.2,60.0,94,85,67,30.18,30.09,8,2,10,0.00
2012-10-25,76.7,70.1,63.9,69.0,66.4,62.0,96,88,74,30.15,30.07,10,4,14,0.01
2012-10-26,76.2,67.8,61.1,69.0,64.2,59.0,95,88,77,30.06,29.79,25,11,27,0.00
2012-10-27,69.2,66.7,63.5,66.0,64.2,61.0,94,91,87,29.79,29.48,34,19,44,1.08
2012-10-28,63.3,60.3,58.1,61.0,57.0,52.0,95,89,77,29.47,29.39,31,17,42,0.86
2012-10-29,58.3,52.7,48.9,53.0,47.2,40.0,93,81,70,29.45,29.36,20,12,29,0.00
2012-10-30,56.2,51.3,47.6,43.0,39.2,36.0,74,64,52,29.65,29.39,18,9,22,0.00
2012-10-31,59.3,51.7,45.2,44.0,40.6,38.0,78,67,50,29.78,29.65,12,6,20,0.00
2012-11-1,61.3,52.1,43.5,44.0,41.1,36.0,84,68,39,29.85,29.71,13,4,17,0.00
2012-11-2,64.5,53.4,42.8,49.0,42.0,36.0,80,67,45,29.95,29.78,19,6,23,0.00
2012-11-3,59.6,51.5,42.5,46.0,41.0,36.0,88,69,46,30.08,29.95,10,3,17,0.00
2012-11-4,73.9,57.2,47.3,65.0,50.6,43.0,93,79,65,30.07,29.88,16,6,20,0.15
2012-11-5,57.3,50.0,45.4,45.0,42.7,40.0,93,77,55,30.10,29.94,16,8,20,0.00
2012-11-6,46.7,44.4,41.4,45.0,41.4,38.0,95,89,83,30.08,29.83,17,10,20,0.31
2012-11-7,53.1,46.0,42.7,46.0,42.0,39.0,95,86,74,29.90,29.78,15,6,20,0.01
2012-11-8,59.0,47.4,37.5,39.0,35.0,31.0,92,65,36,30.07,29.90,11,4,15,0.00
2012-11-9,61.4,51.0,42.1,45.0,36.9,31.0,88,60,36,30.27,30.07,8,3,11,0.00
2012-11-10,64.3,56.1,46.7,56.0,48.8,39.0,87,77,57,30.39,30.26,8,3,12,0.00
2012-11-11,68.0,58.7,50.4,59.0,54.5,49.0,95,86,62,30.49,30.40,9,3,12,0.00
2012-11-12,69.2,63.4,58.7,65.0,60.8,55.0,95,91,84,30.43,30.21,12,4,22,0.04
2012-11-13,67.9,58.7,46.6,65.0,57.1,45.0,96,94,91,30.32,30.16,21,6,23,0.02
2012-11-14,54.2,48.6,45.4,47.0,44.6,42.0,94,86,77,30.39,30.30,19,12,28,0.00
2012-11-15,51.7,48.2,43.9,50.0,45.5,41.0,95,90,84,30.30,30.15,18,9,22,0.23
2012-11-16,58.2,51.2,45.6,49.0,46.1,41.0,95,83,66,30.33,30.17,17,9,20,0.00
2012-11-17,56.7,50.8,42.4,51.0,45.8,39.0,88,83,78,30.36,30.30,22,13,27,0.00
2012-11-18,58.6,55.7,53.3,55.0,53.2,50.0,95,91,86,30.30,30.16,26,17,36,1.04
2012-11-19,57.1,54.7,52.3,54.0,52.5,50.0,96,92,88,30.17,30.07,28,16,30,0.19
2012-11-20,56.9,53.2,50.9,53.0,50.7,48.0,95,91,86,30.09,30.02,20,10,24,0.00
2012-11-21,60.6,52.4,46.9,51.0,47.2,44.0,92,83,65,30.11,30.02,16,10,21,0.00
2012-11-22,61.5,51.7,44.1,50.0,45.9,41.0,89,81,67,30.14,30.06,17,9,23,0.00
2012-11-23,61.7,53.4,43.2,53.0,46.7,39.0,92,79,45,30.12,29.85,11,5,14,0.00
2012-11-24,56.5,49.1,40.5,52.0,36.8,27.0,86,64,42,30.11,29.84,17,6,21,0.00
2012-11-25,50.5,42.4,33.7,39.0,31.2,25.0,78,65,49,30.20,30.07,10,4,14,0.00
2012-11-26,60.1,52.0,43.1,51.0,44.6,37.0,89,77,56,30.22,30.12,9,4,13,0.00
2012-11-27,58.4,53.6,48.7,52.0,47.5,40.0,93,80,58,30.20,30.09,10,2,12,0.07
2012-11-28,52.4,46.7,40.6,48.0,40.1,36.0,95,79,58,30.38,30.15,15,7,20,0.01
2012-11-29,55.3,45.9,38.8,42.0,37.7,32.0,94,75,43,30.48,30.37,5,2,8,0.00
2012-11-30,57.5,49.0,40.4,48.0,43.0,39.0,95,81,60,30.42,30.31,6,2,8,0.01
2012-12-1,59.1,52.3,44.1,52.0,48.2,43.0,96,86,69,30.40,30.32,5,2,8,0.01
2012-12-2,61.5,55.9,47.1,58.0,53.1,46.0,96,90,83,30.40,30.28,8,2,11,0.01
2012-12-3,70.8,61.7,57.8,61.0,58.5,56.0,96,89,70,30.31,30.23,7,4,13,0.00
2012-12-4,65.2,60.3,54.9,61.0,58.1,53.0,95,92,87,30.34,30.21,9,3,12,0.00
2012-12-5,73.4,62.5,54.7,60.0,56.8,50.0,95,83,53,30.21,30.08,14,4,18,0.00
2012-12-6,53.1,50.4,46.3,48.0,44.7,42.0,91,81,75,30.27,30.17,14,8,16,0.10
2012-12-7,62.2,55.8,45.9,61.0,53.8,42.0,97,93,87,30.16,29.97,11,5,14,0.25
2012-12-8,63.8,59.4,56.0,62.0,58.2,55.0,98,96,87,30.08,29.94,9,4,11,0.02
2012-12-9,65.4,60.1,56.2,64.0,58.5,55.0,98,94,87,30.17,30.01,8,2,15,0.00
2012-12-10,64.9,62.4,60.2,64.0,61.5,59.0,98,97,92,30.01,29.79,13,5,28,0.17
2012-12-11,69.7,63.0,54.0,66.0,60.8,53.0,98,93,76,30.09,29.77,15,5,23,0.37
2012-12-12,53.8,49.1,44.9,53.0,47.7,44.0,96,95,92,30.24,30.08,19,11,27,0.25
2012-12-13,51.9,46.6,44.3,48.0,44.5,42.0,96,92,84,30.29,30.09,24,13,28,0.25
2012-12-14,59.5,48.4,41.0,49.0,43.8,39.0,93,85,62,30.34,30.22,23,6,23,0.00
2012-12-15,59.4,51.5,44.8,53.0,47.8,43.0,95,87,72,30.25,30.08,8,3,12,0.00
2012-12-16,60.7,57.9,54.6,60.0,56.9,53.0,97,96,92,30.09,29.90,8,2,12,0.04
2012-12-17,62.8,59.9,57.9,62.0,59.1,57.0,98,97,93,29.90,29.65,14,4,22,0.26
2012-12-18,65.3,58.2,47.4,58.0,52.2,41.0,94,81,61,29.92,29.67,21,7,23,0.00
2012-12-19,62.9,51.9,43.6,52.0,43.7,38.0,89,75,44,30.12,29.91,9,3,15,0.00
2012-12-20,65.2,57.2,47.7,62.0,53.8,44.0,93,88,82,30.16,29.58,28,8,42,0.04
2012-12-21,65.0,48.4,38.5,63.0,35.9,25.0,95,63,50,29.83,29.48,23,12,40,0.19
2012-12-22,48.5,41.2,35.5,32.0,27.9,26.0,70,60,43,30.11,29.83,23,8,29,0.00
2012-12-23,53.0,45.0,33.4,45.0,32.3,23.0,80,63,34,30.19,30.06,11,4,18,0.00
2012-12-24,58.1,52.4,44.0,52.0,44.7,36.0,89,75,61,30.08,29.93,10,4,13,0.01
2012-12-25,57.4,52.1,48.8,51.0,48.3,44.0,91,87,80,30.10,29.93,12,4,16,0.00
2012-12-26,65.4,56.6,47.4,63.0,53.5,39.0,97,89,71,30.05,29.47,30,10,44,0.74
2012-12-27,52.7,45.9,39.4,39.0,36.3,34.0,82,70,52,30.04,29.64,17,8,27,0.00
2012-12-28,48.8,42.6,36.1,43.0,35.2,31.0,87,75,61,30.18,30.00,9,4,14,0.00
2012-12-29,53.1,47.5,44.5,50.0,44.6,38.0,96,89,76,30.00,29.62,19,7,26,0.60
2012-12-30,47.4,41.3,36.4,38.0,29.0,25.0,78,63,43,30.39,29.90,18,7,21,0.01
2012-12-31,52.6,43.5,32.4,47.0,35.1,26.0,81,73,52,30.40,30.15,12,4,16,0.00
2013-1-1,58.3,54.2,51.2,53.0,49.9,45.0,96,85,71,30.14,29.95,13,5,15,0.02